{"data":{"norad_id":45369,"intl_designator":"2020-019K","name":"STARLINK-1277","alt_names":[],"object_type":"PAYLOAD","status":"ACTIVE","operator":null,"country":"US","launch_date":"2020-03-18","launch_site_code":"AFETR","launch_vehicle":null,"mission":null,"orbit_class":"UNKNOWN","rcs_meters":null,"size_class":null,"mass_kg":null,"dimensions":null,"purposes":["comms"],"wikipedia_slug":null,"has_3d_model":false,"image_url":null,"decayed_at":null,"tle_current":{"epoch":"2026-09-20T01:27:43.258176Z","epoch_age_seconds":52402,"freshness":"FRESH","line1":"1 45369U 20019K   26263.06091734  .00078191  00000+0  41261-3 0  9990","line2":"2 45369  53.0367 278.2495 0004586  31.2168 328.9125 15.79966339360371","mean_motion":15.79966339,"eccentricity":0.0004586,"inclination_deg":53.0367,"raan_deg":278.2495,"arg_perigee_deg":31.2168,"mean_anomaly_deg":328.9125,"bstar":0.00041261,"rev_number":36037,"period_min":91.1411822173,"perigee_km":327.45932102745,"apogee_km":333.61251582823,"semimajor_km":6708.6729184278,"source":"CELESTRAK","updated_at":"2026-09-20T09:00:38.230411Z"}}}